GW3919 Weather Reports


Display with metric or nautical units.
time (UTC)temp
F
wind
direction
speed
MPH
gust
MPH
rain 1hr
in
rain 24hr
in
rain mn
in
humidity
%
barometer
mb
20260901225651 98 307 3.0 3.0 0.00 0.00 0.00 47 1013.5
20260901225145 97 255 3.0 5.0 0.00 0.00 0.00 47 1013.5
20260901224642 98 261 2.0 4.0 0.00 0.00 0.00 46 1013.7
20260901224138 98 241 3.0 3.0 0.00 0.00 0.00 46 1013.7
20260901223633 100 267 3.0 4.0 0.00 0.00 0.00 46 1013.7
20260901223128 100 279 3.0 5.0 0.00 0.00 0.00 45 1013.5
20260901222624 99 252 2.0 4.0 0.00 0.00 0.00 45 1013.7
20260901222120 98 265 2.0 3.0 0.00 0.00 0.00 47 1013.8
20260901221616 97 282 4.0 4.0 0.00 0.00 0.00 48 1013.7
20260901221112 97 304 2.0 3.0 0.00 0.00 0.00 48 1013.8
20260901220610 98 258 3.0 4.0 0.00 0.00 0.00 48 1013.8
20260901220110 98 266 2.0 4.0 0.00 0.00 0.00 47 1013.9
20260901215608 99 283 2.0 4.0 0.00 0.00 0.00 47 1013.9
20260901215108 98 271 4.0 4.0 0.00 0.00 0.00 48 1013.7
20260901214606 98 235 3.0 3.0 0.00 0.00 0.00 47 1014.0
20260901214101 98 330 2.0 3.0 0.00 0.00 0.00 47 1013.8
20260901213600 98 296 1.0 4.0 0.00 0.00 0.00 47 1013.9
20260901213055 99 307 2.0 5.0 0.00 0.00 0.00 46 1013.9
20260901212550 99 269 2.0 3.0 0.00 0.00 0.00 46 1013.8
20260901212046 98 305 3.0 4.0 0.00 0.00 0.00 46 1014.2
20260901211541 98 243 2.0 4.0 0.00 0.00 0.00 46 1014.1
20260901211038 99 257 4.0 4.0 0.00 0.00 0.00 45 1014.0
20260901210533 99 277 3.0 4.0 0.00 0.00 0.00 45 1014.4
20260901210029 99 277 3.0 4.0 0.00 0.00 0.00 45 1014.3
20260901205523 100 282 2.0 3.0 0.00 0.00 0.00 45 1014.2
20260901205018 100 276 2.0 5.0 0.00 0.00 0.00 44 1014.2
20260901204515 103 278 3.0 5.0 0.00 0.00 0.00 43 1014.2
20260901204014 102 292 3.0 6.0 0.00 0.00 0.00 43 1014.4
20260901203510 101 288 4.0 12.0 0.00 0.00 0.00 44 1014.3
20260901203004 102 232 2.0 6.0 0.00 0.00 0.00 42 1014.3
20260901202459 102 291 2.0 5.0 0.00 0.00 0.00 43 1014.5
20260901201954 102 266 2.0 3.0 0.00 0.00 0.00 43 1014.5
20260901201449 100 60 0.0 4.0 0.00 0.00 0.00 44 1014.5
20260901200944 101 252 7.0 10.0 0.00 0.00 0.00 44 1014.7
20260901200439 102 249 3.0 5.0 0.00 0.00 0.00 44 1014.6
20260901195938 100 261 2.0 6.0 0.00 0.00 0.00 45 1014.9
20260901195436 102 260 3.0 5.0 0.00 0.00 0.00 44 1014.7
20260901194926 100 202 2.0 6.0 0.00 0.00 0.00 45 1014.8
20260901194420 98 253 2.0 4.0 0.00 0.00 0.00 48 1014.8
20260901193917 98 194 2.0 6.0 0.00 0.00 0.00 47 1015.0
20260901193416 99 200 0.0 4.0 0.00 0.00 0.00 46 1015.0
20260901192916 98 294 2.0 4.0 0.00 0.00 0.00 47 1015.1
20260901192412 99 261 2.0 5.0 0.00 0.00 0.00 46 1015.2
20260901191908 97 180 0.0 2.0 0.00 0.00 0.00 48 1015.2
20260901191403 97 283 3.0 4.0 0.00 0.00 0.00 48 1015.2
20260901190859 97 36 2.0 4.0 0.00 0.00 0.00 48 1015.2
20260901190353 100 323 2.0 5.0 0.00 0.00 0.00 45 1015.5
20260901185851 100 269 2.0 5.0 0.00 0.00 0.00 45 1015.3
20260901185350 100 258 4.0 4.0 0.00 0.00 0.00 45 1015.6
20260901184845 98 224 1.0 3.0 0.00 0.00 0.00 47 1015.8
20260901184341 100 292 2.0 4.0 0.00 0.00 0.00 45 1015.8
20260901183836 99 294 2.0 6.0 0.00 0.00 0.00 45 1015.8
20260901183335 100 262 4.0 6.0 0.00 0.00 0.00 44 1016.2
20260901182832 100 203 3.0 4.0 0.00 0.00 0.00 45 1016.1
20260901182332 99 261 3.0 5.0 0.00 0.00 0.00 47 1016.2
20260901181827 98 159 4.0 5.0 0.00 0.00 0.00 47 1016.5
20260901181321 97 198 2.0 2.0 0.00 0.00 0.00 49 1016.4
20260901180820 97 264 3.0 5.0 0.00 0.00 0.00 49 1016.6
20260901180320 99 296 3.0 5.0 0.00 0.00 0.00 48 1016.7
20260901175819 98 277 3.0 5.0 0.00 0.00 0.00 49 1016.7
20260901175314 97 160 0.0 4.0 0.00 0.00 0.00 49 1016.7
20260901174809 97 257 4.0 5.0 0.00 0.00 0.00 50 1016.9
20260901174304 95 230 2.0 4.0 0.00 0.00 0.00 52 1016.9
20260901173800 95 113 1.0 2.0 0.00 0.00 0.00 51 1016.9
20260901173255 97 291 3.0 3.0 0.00 0.00 0.00 50 1017.2
20260901172751 97 172 2.0 2.0 0.00 0.00 0.00 51 1017.0
20260901172250 96 254 2.0 3.0 0.00 0.00 0.00 52 1016.9
20260901171748 96 317 2.0 5.0 0.00 0.00 0.00 52 1017.2
20260901171248 96 253 4.0 5.0 0.00 0.00 0.00 52 1017.1
20260901170746 95 317 4.0 4.0 0.00 0.00 0.00 53 1017.3
20260901170241 94 268 3.0 4.0 0.00 0.00 0.00 54 1017.2
20260901165740 94 250 2.0 3.0 0.00 0.00 0.00 54 1017.4
20260901165235 94 130 0.0 2.0 0.00 0.00 0.00 54 1017.6
20260901164731 94 142 4.0 6.0 0.00 0.00 0.00 55 1017.7
20260901164227 96 102 1.0 5.0 0.00 0.00 0.00 52 1017.6
20260901163722 97 284 0.0 4.0 0.00 0.00 0.00 52 1017.9
20260901163221 95 284 1.0 4.0 0.00 0.00 0.00 54 1017.9
20260901162716 95 250 3.0 3.0 0.00 0.00 0.00 53 1017.7
20260901162215 97 267 3.0 7.0 0.00 0.00 0.00 52 1017.8
20260901161714 96 306 0.0 3.0 0.00 0.00 0.00 54 1017.6
20260901161209 97 263 0.0 3.0 0.00 0.00 0.00 53 1017.6
20260901160706 95 145 2.0 5.0 0.00 0.00 0.00 55 1017.7
20260901160201 95 329 1.0 6.0 0.00 0.00 0.00 56 1017.7
20260901155659 94 195 4.0 5.0 0.00 0.00 0.00 56 1017.7
20260901155155 93 206 2.0 5.0 0.00 0.00 0.00 57 1017.6
20260901154650 94 305 3.0 4.0 0.00 0.00 0.00 56 1017.7
20260901154144 94 66 2.0 2.0 0.00 0.00 0.00 57 1017.6
20260901153640 95 267 2.0 4.0 0.00 0.00 0.00 56 1017.7
20260901153133 95 268 2.0 2.0 0.00 0.00 0.00 57 1017.6
20260901152628 93 315 0.0 4.0 0.00 0.00 0.00 58 1017.7
20260901152126 93 146 0.0 3.0 0.00 0.00 0.00 59 1017.6
20260901151623 93 126 5.0 6.0 0.00 0.00 0.00 59 1017.7
20260901151122 93 334 4.0 4.0 0.00 0.00 0.00 59 1017.7
20260901150615 92 326 1.0 2.0 0.00 0.00 0.00 60 1017.8
20260901150113 91 340 2.0 4.0 0.00 0.00 0.00 62 1017.6
20260901145607 91 72 2.0 4.0 0.00 0.00 0.00 62 1017.8
20260901145106 91 267 1.0 2.0 0.00 0.00 0.00 62 1018.0
20260901144602 91 262 2.0 3.0 0.00 0.00 0.00 62 1017.9
20260901144057 91 273 0.0 3.0 0.00 0.00 0.00 62 1017.8
20260901143552 91 74 1.0 2.0 0.00 0.00 0.00 63 1017.8
20260901143049 91 264 0.0 4.0 0.00 0.00 0.00 64 1017.8
20260901142544 89 252 2.0 2.0 0.00 0.00 0.00 66 1017.9
20260901142043 89 191 0.0 3.0 0.00 0.00 0.00 65 1017.8
20260901141538 90 91 2.0 2.0 0.00 0.00 0.00 65 1017.9
20260901141033 90 228 2.0 2.0 0.00 0.00 0.00 64 1017.7
20260901140532 89 209 0.0 1.0 0.00 0.00 0.00 65 1017.6
20260901140027 89 275 0.0 4.0 0.00 0.00 0.00 66 1017.9
20260901135525 90 240 1.0 2.0 0.00 0.00 0.00 65 1017.9
20260901135021 89 215 0.0 2.0 0.00 0.00 0.00 67 1017.8
20260901134518 90 327 2.0 2.0 0.00 0.00 0.00 65 1018.1
20260901134012 88 246 2.0 2.0 0.00 0.00 0.00 67 1017.9
20260901133511 87 283 1.0 3.0 0.00 0.00 0.00 67 1017.7
20260901133009 88 250 0.0 2.0 0.00 0.00 0.00 66 1017.8
20260901132509 89 281 1.0 2.0 0.00 0.00 0.00 65 1017.9
20260901132009 87 127 0.0 1.0 0.00 0.00 0.00 68 1017.9
20260901131503 86 330 1.0 2.0 0.00 0.00 0.00 69 1017.8
20260901130959 86 249 0.0 2.0 0.00 0.00 0.00 69 1017.8
20260901130453 85 257 0.0 2.0 0.00 0.00 0.00 70 1017.6
20260901125951 85 258 2.0 4.0 0.00 0.00 0.00 70 1017.7
20260901125450 83 224 0.0 2.0 0.00 0.00 0.00 72 1017.6
20260901124945 82 144 1.0 1.0 0.00 0.00 0.00 74 1017.4
20260901124440 82 219 2.0 2.0 0.00 0.00 0.00 75 1017.4
20260901123935 81 279 0.0 2.0 0.00 0.00 0.00 76 1017.3
20260901123430 81 296 0.0 2.0 0.00 0.00 0.00 76 1017.2
20260901122928 80 275 1.0 2.0 0.00 0.00 0.00 77 1017.3
20260901122428 80 269 0.0 2.0 0.00 0.00 0.00 78 1017.1
20260901121927 79 124 0.0 1.0 0.00 0.00 0.00 79 1016.8
20260901121422 79 214 1.0 2.0 0.00 0.00 0.00 79 1016.9
20260901120918 79 192 0.0 2.0 0.00 0.00 0.00 79 1016.8
20260901120417 79 242 0.0 1.0 0.00 0.00 0.00 78 1017.0
20260901115913 80 214 0.0 1.0 0.00 0.00 0.00 78 1016.6
20260901115413 80 246 0.0 0.0 0.00 0.00 0.00 77 1016.8
20260901114911 80 225 0.0 2.0 0.00 0.00 0.00 77 1016.7
20260901114406 80 62 0.0 0.0 0.00 0.00 0.00 77 1016.6
20260901113904 80 255 0.0 0.0 0.00 0.00 0.00 76 1016.6
20260901113403 80 215 0.0 2.0 0.00 0.00 0.00 76 1016.5
20260901112859 81 25 0.0 1.0 0.00 0.00 0.00 75 1016.5
20260901112354 81 265 0.0 2.0 0.00 0.00 0.00 75 1016.5
20260901111848 81 307 0.0 2.0 0.00 0.00 0.00 75 1016.7
20260901111347 81 325 0.0 2.0 0.00 0.00 0.00 74 1016.7
20260901110845 81 157 0.0 1.0 0.00 0.00 0.00 74 1016.4
20260901110341 81 324 1.0 1.0 0.00 0.00 0.00 74 1016.2
20260901105837 81 294 1.0 1.0 0.00 0.00 0.00 74 1016.4
20260901105332 81 284 0.0 0.0 0.00 0.00 0.00 74 1016.5
20260901104829 81 217 0.0 1.0 0.00 0.00 0.00 74 1016.4
20260901104324 81 257 0.0 1.0 0.00 0.00 0.00 73 1016.3
20260901103819 81 269 0.0 1.0 0.00 0.00 0.00 73 1016.4
20260901103319 81 277 0.0 1.0 0.00 0.00 0.00 72 1016.3
20260901102814 82 269 0.0 0.0 0.00 0.00 0.00 72 1016.5
20260901102308 82 310 0.0 1.0 0.00 0.00 0.00 72 1016.4
20260901101803 82 279 0.0 1.0 0.00 0.00 0.00 72 1016.5
20260901101258 82 236 1.0 1.0 0.00 0.00 0.00 71 1016.5
20260901100757 82 204 1.0 1.0 0.00 0.00 0.00 71 1016.5
20260901100252 82 229 0.0 1.0 0.00 0.00 0.00 71 1016.3
20260901095750 82 164 0.0 0.0 0.00 0.00 0.00 71 1016.4
20260901095248 82 249 0.0 1.0 0.00 0.00 0.00 70 1016.5
20260901094743 82 245 0.0 1.0 0.00 0.00 0.00 70 1016.6
20260901094238 82 309 0.0 1.0 0.00 0.00 0.00 69 1016.4
20260901093733 82 297 0.0 1.0 0.00 0.00 0.00 69 1016.5
20260901093232 82 304 0.0 0.0 0.00 0.00 0.00 69 1016.5
20260901092728 82 233 0.0 0.0 0.00 0.00 0.00 69 1016.4
20260901092224 82 333 0.0 0.0 0.00 0.00 0.00 69 1016.4
20260901091719 83 230 0.0 0.0 0.00 0.00 0.00 68 1016.5
20260901091214 83 231 0.0 1.0 0.00 0.00 0.00 68 1016.6
20260901090709 83 277 1.0 1.0 0.00 0.00 0.00 68 1016.4
20260901090204 83 222 0.0 1.0 0.00 0.00 0.00 68 1016.4
20260901085700 83 284 0.0 0.0 0.00 0.00 0.00 67 1016.4
20260901085155 83 244 0.0 1.0 0.00 0.00 0.00 67 1016.4
20260901084652 83 289 0.0 1.0 0.00 0.00 0.00 67 1016.3
20260901084148 83 315 0.0 2.0 0.00 0.00 0.00 67 1016.5
20260901083647 83 227 1.0 2.0 0.00 0.00 0.00 67 1016.1
20260901083146 84 246 1.0 2.0 0.00 0.00 0.00 66 1016.1
20260901082640 84 275 0.0 1.0 0.00 0.00 0.00 66 1016.0
20260901082136 84 303 0.0 2.0 0.00 0.00 0.00 66 1016.0
20260901081631 84 269 0.0 1.0 0.00 0.00 0.00 66 1016.3
20260901081125 84 255 0.0 1.0 0.00 0.00 0.00 65 1016.2
20260901080620 84 321 0.0 2.0 0.00 0.00 0.00 65 1016.3
20260901080119 84 240 0.0 2.0 0.00 0.00 0.00 65 1016.2
20260901075614 84 250 1.0 2.0 0.00 0.00 0.00 64 1016.2
20260901075114 84 228 0.0 2.0 0.00 0.00 0.00 64 1016.3
20260901074613 84 269 0.0 2.0 0.00 0.00 0.00 64 1016.2
20260901074108 84 89 0.0 2.0 0.00 0.00 0.00 63 1016.2
20260901073605 84 211 0.0 2.0 0.00 0.00 0.00 63 1016.3
20260901073059 85 293 1.0 1.0 0.00 0.00 0.00 62 1016.1
20260901072555 85 269 0.0 2.0 0.00 0.00 0.00 62 1016.1
20260901072049 85 268 0.0 2.0 0.00 0.00 0.00 61 1016.2
20260901071544 85 239 1.0 2.0 0.00 0.00 0.00 61 1016.3
20260901071042 85 281 1.0 3.0 0.00 0.00 0.00 61 1015.9
20260901070538 86 279 2.0 4.0 0.00 0.00 0.00 61 1015.8
20260901070033 86 268 2.0 2.0 0.00 0.00 0.00 61 1015.8
20260901065527 86 317 1.0 4.0 0.00 0.00 0.00 60 1016.0
20260901065022 86 309 0.0 2.0 0.00 0.00 0.00 60 1016.2
20260901064519 86 260 2.0 2.0 0.00 0.00 0.00 60 1016.1
20260901064015 86 288 0.0 1.0 0.00 0.00 0.00 60 1016.0
20260901063512 86 301 2.0 3.0 0.00 0.00 0.00 60 1015.9
20260901063008 86 297 0.0 1.0 0.00 0.00 0.00 59 1015.9
20260901062503 86 300 4.0 5.0 0.00 0.00 0.00 59 1015.9
20260901061959 86 277 2.0 3.0 0.00 0.00 0.00 59 1015.8
20260901061455 86 249 0.0 4.0 0.00 0.00 0.00 58 1015.8
20260901060954 87 291 2.0 2.0 0.00 0.00 0.00 58 1015.8
20260901060444 87 314 0.0 3.0 0.00 0.00 0.00 58 1015.6
20260901055943 87 307 1.0 2.0 0.00 0.00 0.00 58 1015.6
20260901055440 87 245 1.0 3.0 0.00 0.00 0.00 57 1015.5
20260901054936 87 297 2.0 3.0 0.00 0.00 0.00 57 1015.3
20260901054434 87 298 2.0 3.0 0.00 0.00 0.00 57 1015.5
20260901053930 87 311 0.0 2.0 0.00 0.00 0.00 56 1015.5
20260901053425 87 237 4.0 5.0 0.00 0.00 0.00 56 1015.4
20260901052920 88 230 0.0 4.0 0.00 0.00 0.00 55 1015.2
20260901052415 88 276 1.0 5.0 0.00 0.00 0.00 55 1015.2
20260901051914 88 307 3.0 5.0 0.00 0.00 0.00 54 1015.2
20260901051409 88 301 1.0 2.0 0.00 0.00 0.00 54 1015.1
20260901050904 88 272 2.0 3.0 0.00 0.00 0.00 54 1015.2
20260901050400 88 251 1.0 1.0 0.00 0.00 0.00 53 1015.1
20260901045859 88 306 2.0 4.0 0.00 0.00 0.00 53 1015.2
20260901045354 87 259 0.0 2.0 0.00 0.00 0.00 54 1015.1
20260901044849 87 293 0.0 1.0 0.00 0.00 0.00 54 1014.9
20260901044346 87 220 0.0 1.0 0.00 0.00 0.00 53 1015.0
20260901043841 87 256 2.0 2.0 0.00 0.00 0.00 53 1015.0
20260901043337 87 264 1.0 2.0 0.00 0.00 0.00 53 1015.0
20260901042837 87 256 2.0 3.0 0.00 0.00 0.00 54 1015.0
20260901042331 86 282 2.0 3.0 0.00 0.00 0.00 54 1014.9
20260901041827 86 247 2.0 2.0 0.00 0.00 0.00 55 1015.0
20260901041322 86 235 0.0 1.0 0.00 0.00 0.00 55 1015.0
20260901040821 86 256 0.0 1.0 0.00 0.00 0.00 55 1014.7
20260901040320 86 242 0.0 1.0 0.00 0.00 0.00 55 1014.9
20260901035820 87 234 0.0 1.0 0.00 0.00 0.00 54 1014.9
20260901035319 87 217 0.0 1.0 0.00 0.00 0.00 54 1014.8
20260901034818 87 225 0.0 1.0 0.00 0.00 0.00 54 1014.9
20260901034314 87 224 0.0 0.0 0.00 0.00 0.00 54 1014.9
20260901033813 87 259 0.0 1.0 0.00 0.00 0.00 54 1014.9
20260901033312 87 224 0.0 1.0 0.00 0.00 0.00 53 1014.9
20260901032811 87 240 0.0 1.0 0.00 0.00 0.00 53 1014.9
20260901032306 88 249 0.0 1.0 0.00 0.00 0.00 52 1014.8
20260901031801 88 236 0.0 1.0 0.00 0.00 0.00 52 1014.8
20260901031257 88 234 1.0 1.0 0.00 0.00 0.00 51 1015.0
20260901030756 88 233 0.0 1.0 0.00 0.00 0.00 51 1014.7
20260901030256 89 247 1.0 1.0 0.00 0.00 0.00 51 1014.7
20260901025751 89 242 0.0 1.0 0.00 0.00 0.00 50 1014.9
20260901025246 89 254 1.0 1.0 0.00 0.00 0.00 50 1014.6
20260901024741 89 258 0.0 1.0 0.00 0.00 0.00 50 1014.6
20260901024240 89 255 0.0 0.0 0.00 0.00 0.00 49 1014.3
20260901023738 90 311 0.0 2.0 0.00 0.00 0.00 49 1014.4
20260901023233 90 230 0.0 1.0 0.00 0.00 0.00 48 1014.4
20260901022729 90 265 0.0 2.0 0.00 0.00 0.00 48 1014.2
20260901022224 90 224 0.0 1.0 0.00 0.00 0.00 48 1014.3
20260901021719 90 228 0.0 1.0 0.00 0.00 0.00 48 1014.1
20260901021215 91 205 0.0 1.0 0.00 0.00 0.00 47 1014.1
20260901020710 91 242 0.0 0.0 0.00 0.00 0.00 47 1014.1
20260901020205 91 243 1.0 1.0 0.00 0.00 0.00 46 1014.0
20260901015705 92 212 0.0 1.0 0.00 0.00 0.00 46 1014.1
20260901015200 92 269 0.0 2.0 0.00 0.00 0.00 46 1014.0
20260901014654 92 228 1.0 1.0 0.00 0.00 0.00 45 1013.9
20260901014151 93 243 0.0 1.0 0.00 0.00 0.00 45 1014.1
20260901013646 93 249 1.0 2.0 0.00 0.00 0.00 44 1013.9
20260901013142 93 272 0.0 1.0 0.00 0.00 0.00 44 1013.8
20260901012637 94 276 2.0 2.0 0.00 0.00 0.00 43 1013.8
20260901012132 94 241 0.0 1.0 0.00 0.00 0.00 43 1013.8
20260901011628 95 274 2.0 3.0 0.00 0.00 0.00 42 1013.9
20260901011127 95 252 1.0 2.0 0.00 0.00 0.00 42 1013.8
20260901010622 95 220 1.0 2.0 0.00 0.00 0.00 41 1013.6
20260901010121 96 294 2.0 2.0 0.00 0.00 0.00 40 1013.8
20260901005620 96 253 2.0 2.0 0.00 0.00 0.00 40 1013.6
20260901005115 96 305 4.0 4.0 0.00 0.00 0.00 39 1013.6
20260901004615 96 278 2.0 2.0 0.00 0.00 0.00 39 1013.4
20260901004110 97 269 0.0 2.0 0.00 0.00 0.00 38 1013.6
20260901003605 98 314 2.0 3.0 0.00 0.00 0.00 37 1013.5
20260901003103 98 316 2.0 2.0 0.00 0.00 0.00 37 1013.6
20260901002558 99 204 0.0 3.0 0.00 0.00 0.00 36 1013.3
20260901002053 99 258 2.0 2.0 0.00 0.00 0.00 36 1013.7
20260901001553 99 313 1.0 6.0 0.00 0.00 0.00 36 1013.5
20260901001048 100 266 3.0 3.0 0.00 0.00 0.00 36 1013.7
20260901000543 100 272 3.0 4.0 0.00 0.00 0.00 35 1013.6
20260901000039 101 273 1.0 3.0 0.00 0.00 0.00 35 1013.6
20260831235532 101 244 2.0 3.0 0.00 0.00 0.00 35 1013.4
20260831235029 101 277 2.0 5.0 0.00 0.00 0.00 35 1013.7
20260831234522 102 293 2.0 4.0 0.00 0.00 0.00 34 1013.6
20260831234018 102 272 0.0 3.0 0.00 0.00 0.00 34 1013.7
20260831233513 102 260 3.0 3.0 0.00 0.00 0.00 35 1013.7
20260831233009 102 306 3.0 4.0 0.00 0.00 0.00 35 1013.6
20260831232504 102 273 2.0 4.0 0.00 0.00 0.00 34 1013.7
20260831231959 102 254 1.0 4.0 0.00 0.00 0.00 35 1013.7
20260831231456 102 272 4.0 6.0 0.00 0.00 0.00 34 1013.4
20260831230951 104 265 2.0 3.0 0.00 0.00 0.00 32 1013.3
20260831230446 103 210 0.0 3.0 0.00 0.00 0.00 33 1013.8